This is the latest recevied weather packets stored in our database for station/object WA4TPR. If no packets are shown the sender has not sent any weather packets the latest 10 day(s).
| Time | Temp. | Humidity | Pressure | Rain* | Wind** | Luminosity | Snow |
|---|---|---|---|---|---|---|---|
| 1777208287 | 22.78° C | 93% | 1016.4 hPa | 0 mm | - | 224 W/m² | - |
| 1777207983 | 22.78° C | 94% | 1016.5 hPa | 0 mm | - | 212 W/m² | - |
| 1777207679 | 22.22° C | 95% | 1016.5 hPa | 0 mm | - | 194 W/m² | - |
| 1777207373 | 22.22° C | 95% | 1016.3 hPa | 0 mm | - | 62 W/m² | - |
| 1777207068 | 21.67° C | 96% | 1016.3 hPa | 0 mm | - | 59 W/m² | - |
| 1777206764 | 21.67° C | 96% | 1016.4 hPa | 0 mm | - | 150 W/m² | - |
| 1777206458 | 21.11° C | 97% | 1016.4 hPa | 0 mm | - | 142 W/m² | - |
| 1777206152 | 21.11° C | 97% | 1016.2 hPa | 0 mm | - | 61 W/m² | - |
| 1777205850 | 21.11° C | 98% | 1016 hPa | 0 mm | - | 112 W/m² | - |
| 1777205546 | 21.11° C | 98% | 1016.1 hPa | 0 mm | - | 57 W/m² | - |
| 1777205243 | 20.56° C | 99% | 1016.2 hPa | 0 mm | - | 88 W/m² | - |
| 1777204939 | 20.56° C | 99% | 1016.2 hPa | 0 mm | - | 80 W/m² | - |
| 1777204634 | 20.56° C | 99% | 1016 hPa | 0 mm | - | 49 W/m² | - |
| 1777204330 | 20° C | 99% | 1016.2 hPa | 0 mm | - | 60 W/m² | - |
| 1777204027 | 20° C | 99% | 1015.9 hPa | 0 mm | - | 52 W/m² | - |
| 1777203727 | 20° C | 99% | 1016 hPa | 0 mm | - | 42 W/m² | - |
| 1777203422 | 20° C | 99% | 1015.8 hPa | 0 mm | - | 38 W/m² | - |
| 1777203118 | 19.44° C | 99% | 1015.8 hPa | 0 mm | - | 32 W/m² | - |
| 1777202815 | 19.44° C | 99% | 1015.7 hPa | 0 mm | - | 27 W/m² | - |
| 1777202514 | 19.44° C | 99% | 1015.6 hPa | 0 mm | - | 23 W/m² | - |
| 1777202209 | 19.44° C | 99% | 1015.6 hPa | 0 mm | - | 19 W/m² | - |
| 1777201905 | 19.44° C | 99% | 1015.3 hPa | 0 mm | - | 16 W/m² | - |
| 1777201602 | 18.89° C | 99% | 1015.6 hPa | 0 mm | - | 12 W/m² | - |
| 1777201298 | 18.89° C | 99% | 1015.4 hPa | 0 mm | - | 9 W/m² | - |
| 1777200993 | 18.89° C | 99% | 1015.4 hPa | 0 mm | - | 5 W/m² | - |
* Rain latest hour (hover to see other rain measurements)
** Current wind speed in m/s (hover to see current wind gust speed)